Weather History for KAQP - November, 2012

Change the Weather History Date:

Thursday, November 1, 2012

  Actual Average Record
Temperature  
Mean Temperature 37 °F -  
Max Temperature 46 °F 45 °F 69 °F (2000)
Min Temperature 28 °F 28 °F 10 °F (2006)
Degree Days  
Heating Degree Days 28    
Moisture  
Dew Point 28 °F    
Average Humidity 73    
Maximum Humidity 93    
Minimum Humidity 42    
Precipitation  
Precipitation 0.00 in - - ()
Sea Level Pressure  
Sea Level Pressure 30.05 in    
Wind  
Wind Speed 15 mph (NNW)    
Max Wind Speed 21 mph    
Max Gust Speed 29 mph    
Visibility 10 miles    
Events      
Averages and records for this station are not official NWS values.
T = Trace of Precipitation, MM = Missing Value Source: NWS Daily Summary

Daily Weather History Graph

Daily Weather History Graph

Search for Another Location

Airport or City:

Trip Planner

Search our weather history database for the weather conditions in past years. The results will help you decide how hot, cold, wet, or windy it might be!

Date:

Astronomy

Nov. 01, 2012 Rise Set
Actual Time 8:03 AM CDT 6:10 PM CDT
Civil Twilight 7:32 AM CDT 6:41 PM CDT
Nautical Twilight 6:57 AM CDT 7:16 PM CDT
Astronomical Twilight 6:23 AM CDT 7:50 PM CDT
Moon 8:02 PM CDT (11/1) 10:43 AM CDT (11/1)
Length of Visible Light 11h 08m
Length of Day
10h 07m
Waning Gibbous, 93% of the Moon is Illuminated
Nov 1
Waning Gibbous
Nov 6
Last Quarter
Nov 13
New
Nov 20
First Quarter
Nov 28
Full

Hourly Weather History & Observations

Time (CDT) Temp. Windchill Dew Point Humidity Pressure Visibility Wind Dir Wind Speed Gust Speed Precip Events Conditions
12:13 AM 46.4 °F 39.0 °F 39.2 °F 76% 29.97 in 10.0 mi North 19.6 mph 25.3 mph N/A   Overcast
12:34 AM 44.6 °F 37.2 °F 37.4 °F 76% 29.98 in 10.0 mi North 17.3 mph 24.2 mph N/A   Overcast
12:53 AM 44.6 °F 37.4 °F 37.4 °F 76% 29.99 in 10.0 mi NNW 16.1 mph 26.5 mph N/A   Overcast
1:13 AM 44.6 °F 36.9 °F 37.4 °F 76% 30.00 in 7.0 mi NNW 18.4 mph 28.8 mph N/A   Overcast
1:33 AM 42.8 °F 34.0 °F 39.2 °F 87% 30.00 in 7.0 mi NNW 20.7 mph 25.3 mph N/A   Overcast
1:54 AM 42.8 °F 34.5 °F 39.2 °F 87% 30.00 in 7.0 mi North 18.4 mph 25.3 mph N/A   Overcast
2:13 AM 42.8 °F 34.5 °F 37.4 °F 81% 30.00 in 7.0 mi North 18.4 mph 23.0 mph N/A   Overcast
2:33 AM 41.0 °F 32.8 °F 37.4 °F 87% 30.02 in 7.0 mi NNW 16.1 mph 20.7 mph N/A   Mostly Cloudy
2:53 AM 42.8 °F 35.8 °F 37.4 °F 81% 30.02 in 10.0 mi NNW 13.8 mph 21.9 mph N/A   Mostly Cloudy
3:13 AM 42.8 °F 35.1 °F 37.4 °F 81% 30.03 in 10.0 mi NNW 16.1 mph - N/A   Overcast
3:34 AM 42.8 °F 35.4 °F 37.4 °F 81% 30.02 in 10.0 mi NNW 15.0 mph 19.6 mph N/A   Overcast
3:53 AM 42.8 °F 35.4 °F 37.4 °F 81% 30.02 in 10.0 mi NNW 15.0 mph - N/A   Overcast
4:13 AM 42.8 °F 34.8 °F 35.6 °F 76% 30.02 in 10.0 mi NNW 17.3 mph 21.9 mph N/A   Overcast
4:33 AM 41.0 °F 31.9 °F 35.6 °F 81% 30.03 in 10.0 mi NNW 19.6 mph - N/A   Overcast
4:53 AM 39.2 °F 30.2 °F 35.6 °F 87% 30.03 in 10.0 mi North 17.3 mph 24.2 mph N/A   Overcast
5:13 AM 39.2 °F 30.8 °F 35.6 °F 87% 30.04 in 10.0 mi NNW 15.0 mph 23.0 mph N/A   Overcast
5:33 AM 39.2 °F 30.8 °F 33.8 °F 81% 30.04 in 10.0 mi NNW 15.0 mph 18.4 mph N/A   Overcast
5:54 AM 37.4 °F 28.2 °F 33.8 °F 87% 30.05 in 10.0 mi NNW 16.1 mph - N/A   Overcast
6:13 AM 37.4 °F 28.9 °F 33.8 °F 87% 30.06 in 10.0 mi NNW 13.8 mph 23.0 mph N/A   Overcast
6:34 AM 35.6 °F 27.5 °F 32.0 °F 87% 30.05 in 10.0 mi North 11.5 mph - N/A   Mostly Cloudy
6:53 AM 35.6 °F 26.6 °F 32.0 °F 87% 30.06 in 10.0 mi NNW 13.8 mph - N/A   Mostly Cloudy
7:13 AM 35.6 °F 27.1 °F 32.0 °F 87% 30.06 in 10.0 mi NNW 12.7 mph 16.1 mph N/A   Overcast
7:33 AM 35.6 °F 26.2 °F 30.2 °F 81% 30.07 in 10.0 mi NNW 15.0 mph 18.4 mph N/A   Mostly Cloudy
7:53 AM 33.8 °F 23.9 °F 30.2 °F 87% 30.07 in 10.0 mi NNW 15.0 mph - N/A   Mostly Cloudy
8:13 AM 33.8 °F 25.8 °F 30.2 °F 87% 30.07 in 10.0 mi NNW 10.4 mph - N/A   Scattered Clouds
8:33 AM 32.0 °F 23.0 °F 30.2 °F 93% 30.08 in 10.0 mi NNW 11.5 mph - N/A   Clear
8:53 AM 33.8 °F 25.8 °F 30.2 °F 87% 30.08 in 10.0 mi North 10.4 mph - N/A   Scattered Clouds
9:13 AM 33.8 °F 24.8 °F 30.2 °F 87% 30.08 in 10.0 mi NNW 12.7 mph 18.4 mph N/A   Mostly Cloudy
9:33 AM 33.8 °F 23.2 °F 28.4 °F 81% 30.09 in 10.0 mi NNW 17.3 mph - N/A   Overcast
9:53 AM 33.8 °F 23.9 °F 28.4 °F 81% 30.08 in 10.0 mi NNW 15.0 mph - N/A   Overcast
10:13 AM 33.8 °F 24.8 °F 28.4 °F 81% 30.09 in 10.0 mi North 12.7 mph 18.4 mph N/A   Scattered Clouds
10:33 AM 35.6 °F 25.9 °F 26.6 °F 70% 30.09 in 10.0 mi North 16.1 mph 24.2 mph N/A   Scattered Clouds
10:53 AM 35.6 °F 25.9 °F 26.6 °F 70% 30.09 in 10.0 mi North 16.1 mph - N/A   Mostly Cloudy
11:14 AM 37.4 °F 28.2 °F 26.6 °F 65% 30.08 in 10.0 mi NNW 16.1 mph 21.9 mph N/A   Mostly Cloudy
11:34 AM 37.4 °F 29.3 °F 26.6 °F 65% 30.08 in 10.0 mi NNW 12.7 mph - N/A   Mostly Cloudy
11:53 AM 37.4 °F 27.5 °F 26.6 °F 65% 30.09 in 10.0 mi NNW 18.4 mph 23.0 mph N/A   Mostly Cloudy
12:14 PM 37.4 °F 28.2 °F 26.6 °F 65% 30.09 in 10.0 mi NNW 16.1 mph - N/A   Mostly Cloudy
12:33 PM 39.2 °F 29.8 °F 26.6 °F 61% 30.09 in 10.0 mi NNW 18.4 mph 23.0 mph N/A   Scattered Clouds
12:53 PM 39.2 °F 30.8 °F 26.6 °F 61% 30.08 in 10.0 mi North 15.0 mph 21.9 mph N/A   Clear
1:13 PM 39.2 °F 29.8 °F 24.8 °F 56% 30.07 in 10.0 mi NNW 18.4 mph 21.9 mph N/A   Clear
1:33 PM 41.0 °F 32.2 °F 24.8 °F 53% 30.06 in 10.0 mi North 18.4 mph - N/A   Clear
1:54 PM 39.2 °F 30.5 °F 24.8 °F 56% 30.05 in 10.0 mi North 16.1 mph 23.0 mph N/A   Clear
2:13 PM 39.2 °F 29.8 °F 24.8 °F 56% 30.05 in 10.0 mi North 18.4 mph 24.2 mph N/A   Clear
2:33 PM 39.2 °F 30.8 °F 24.8 °F 56% 30.05 in 10.0 mi NNW 15.0 mph 20.7 mph N/A   Clear
2:53 PM 41.0 °F 33.9 °F 24.8 °F 53% 30.05 in 10.0 mi NNW 12.7 mph 19.6 mph N/A   Clear
3:13 PM 41.0 °F 33.5 °F 24.8 °F 53% 30.04 in 10.0 mi NNW 13.8 mph 18.4 mph N/A   Clear
3:33 PM 42.8 °F 36.2 °F 23.0 °F 46% 30.04 in 10.0 mi North 12.7 mph - N/A   Clear
3:53 PM 42.8 °F 34.5 °F 23.0 °F 46% 30.04 in 10.0 mi North 18.4 mph - N/A   Clear
4:14 PM 42.8 °F 35.8 °F 21.2 °F 42% 30.05 in 10.0 mi NNW 13.8 mph 18.4 mph N/A   Clear
4:33 PM 42.8 °F 35.4 °F 21.2 °F 42% 30.04 in 10.0 mi NNW 15.0 mph - N/A   Clear
4:54 PM 41.0 °F 33.5 °F 23.0 °F 49% 30.03 in 10.0 mi North 13.8 mph - N/A   Clear
5:13 PM 39.2 °F 31.6 °F 23.0 °F 52% 30.03 in 10.0 mi North 12.7 mph - N/A   Clear
5:34 PM 37.4 °F 30.3 °F 24.8 °F 60% 30.04 in 10.0 mi NNW 10.4 mph - N/A   Clear
5:53 PM 37.4 °F 30.3 °F 24.8 °F 60% 30.03 in 10.0 mi North 10.4 mph - N/A   Clear
6:13 PM 35.6 °F 28.0 °F 24.8 °F 65% 30.03 in 10.0 mi North 10.4 mph - N/A   Clear
6:33 PM 33.8 °F 27.0 °F 24.8 °F 70% 30.03 in 10.0 mi North 8.1 mph - N/A   Clear
6:53 PM 33.8 °F 26.4 °F 23.0 °F 65% 30.04 in 10.0 mi North 9.2 mph - N/A   Clear
7:13 PM 32.0 °F 24.8 °F 23.0 °F 69% 30.05 in 10.0 mi North 8.1 mph - N/A   Clear
7:33 PM 32.0 °F 24.2 °F 23.0 °F 69% 30.05 in 10.0 mi North 9.2 mph - N/A   Clear
7:54 PM 30.2 °F 22.6 °F 23.0 °F 75% 30.06 in 10.0 mi North 8.1 mph - N/A   Clear
8:13 PM 30.2 °F 23.4 °F 23.0 °F 75% 30.06 in 10.0 mi North 6.9 mph - N/A   Clear
8:33 PM 28.4 °F 23.3 °F 23.0 °F 80% 30.06 in 10.0 mi North 4.6 mph - N/A   Clear
8:53 PM 28.4 °F 22.2 °F 23.0 °F 80% 30.06 in 10.0 mi North 5.8 mph - N/A   Clear
9:14 PM 28.4 °F 22.2 °F 21.2 °F 74% 30.07 in 10.0 mi North 5.8 mph - N/A   Clear
9:34 PM 28.4 °F 21.2 °F 23.0 °F 80% 30.06 in 10.0 mi North 6.9 mph - N/A   Clear
9:53 PM 28.4 °F 22.2 °F 23.0 °F 80% 30.06 in 10.0 mi North 5.8 mph - N/A   Clear
10:14 PM 28.4 °F 23.3 °F 23.0 °F 80% 30.06 in 10.0 mi North 4.6 mph - N/A   Clear
10:34 PM 28.4 °F 23.3 °F 23.0 °F 80% 30.07 in 10.0 mi North 4.6 mph - N/A   Clear
10:53 PM 28.4 °F 22.2 °F 23.0 °F 80% 30.08 in 10.0 mi North 5.8 mph - N/A   Clear
11:13 PM 28.4 °F 24.6 °F 24.8 °F 86% 30.08 in 10.0 mi North 3.5 mph - N/A   Clear
11:33 PM 28.4 °F 23.3 °F 23.0 °F 80% 30.07 in 10.0 mi NNE 4.6 mph - N/A   Clear
11:53 PM 28.4 °F 24.6 °F 24.8 °F 86% 30.09 in 10.0 mi North 3.5 mph - N/A   Clear